Rotterdam, Netherlands

5:39 AM CEST on June 28, 2017 (GMT +0200)
Rotterdam

Weather History for EHRD - May, 2014

Change the Weather History Date:

Thursday, May 15, 2014

  Actual Average Record
Temperature  
Mean Temperature 48 °F -  
Max Temperature 59 °F 64 °F 82 °F (2000)
Min Temperature 37 °F 48 °F 37 °F (2014)
Degree Days  
Heating Degree Days 17    
Moisture  
Dew Point 42 °F    
Average Humidity 74    
Maximum Humidity 100    
Minimum Humidity 41    
Precipitation  
Precipitation 0.00 in - - ()
Sea Level Pressure  
Sea Level Pressure 30.58 in    
Wind  
Wind Speed 3 mph ()    
Max Wind Speed 9 mph    
Max Gust Speed -    
Visibility 8.4 miles    
Events Fog , Rain    
Averages and records for this station are not official NWS values.
T = Trace of Precipitation, MM = Missing Value Source: Averaged Metar Reports

Daily Weather History Graph

Daily Weather History Graph

Search for Another Location

Airport or City:

Trip Planner

Search our weather history database for the weather conditions in past years. The results will help you decide how hot, cold, wet, or windy it might be!

Date:

Astronomy

May. 15, 2014 Rise Set
Actual Time 5:48 AM CEST 9:29 PM CEST
Civil Twilight 5:06 AM CEST 10:11 PM CEST
Nautical Twilight 4:09 AM CEST 11:09 PM CEST
Astronomical Twilight 2:39 AM CEST 12:42 AM CEST
Moon 10:20 PM CEST (5/15) 6:25 AM CEST (5/15)
Length of Visible Light 17h 04m
Length of Day
15h 40m
Waxing Gibbous, 99% of the Moon is Illuminated
May 15
Waxing Gibbous
May 21
Last Quarter
May 28
New
Jun 5
First Quarter
Jun 13
Full

Hourly Weather History & Observations

Time (CEST) Temp. Windchill Dew Point Humidity Pressure Visibility Wind Dir Wind Speed Gust Speed Precip Events Conditions
12:00 AM 42 °F - 40 °F 88% 30.53 in 17 mi NW 2.2 mph - -   Scattered Clouds
12:25 AM 42.8 °F - 39.2 °F 87% 30.51 in 6.2 mi NW 1.2 mph - N/A   Mostly Cloudy
12:55 AM 42.8 °F - 41.0 °F 93% 30.51 in 6.2 mi Variable 2.3 mph - N/A   Mostly Cloudy
1:00 AM 43 °F - 40 °F 87% 30.54 in 18 mi North 2.2 mph - -   Scattered Clouds
1:25 AM 42.8 °F - 41.0 °F 93% 30.54 in 6.2 mi North 1.2 mph - N/A   Unknown
1:55 AM 42.8 °F - 41.0 °F 93% 30.54 in 6.2 mi Calm Calm - N/A   Unknown
2:00 AM 42 °F - 41 °F 96% 30.54 in 16 mi Calm Calm - -   Partly Cloudy
2:25 AM 41.0 °F - 41.0 °F 100% 30.54 in 6.2 mi North 1.2 mph - N/A   Unknown
2:55 AM 39.2 °F - 39.2 °F 100% 30.54 in 3.7 mi Variable 2.3 mph - N/A   Partly Cloudy
3:00 AM 38 °F - 38 °F 100% 30.55 in 2 mi WNW 2.2 mph - -   Mist
3:25 AM 39.2 °F - 39.2 °F 100% 30.54 in 3.7 mi West 1.2 mph - N/A   Unknown
3:55 AM 39.2 °F - 39.2 °F 100% 30.54 in 5.6 mi Calm Calm - N/A   Partly Cloudy
4:00 AM 39 °F - 39 °F 98% 30.55 in 4 mi West 2.2 mph - - Fog Fog
4:25 AM 39.2 °F - 39.2 °F 100% 30.54 in - Calm Calm - N/A   Partly Cloudy
4:55 AM 39.2 °F - 39.2 °F 100% 30.54 in 3.1 mi West 1.2 mph - N/A   Partly Cloudy
5:00 AM 39 °F - 39 °F 99% 30.56 in 3 mi West 2.2 mph - -   Mist
5:25 AM 39.2 °F - 39.2 °F 100% 30.54 in - WNW 1.2 mph - N/A   Mist
5:55 AM 39.2 °F - 39.2 °F 100% 30.54 in 6.2 mi Variable 1.2 mph - N/A   Scattered Clouds
6:00 AM 39 °F - 39 °F 100% 30.56 in 8 mi Calm Calm - -   Partly Cloudy
6:25 AM 39.2 °F - 39.2 °F 100% 30.54 in 3.7 mi Calm Calm - N/A   Unknown
6:55 AM 41.0 °F - 41.0 °F 100% 30.57 in 5.0 mi Calm Calm - N/A   Scattered Clouds
7:00 AM 42 °F - 41 °F 96% 30.57 in 5 mi Calm Calm - -   Mist
7:25 AM 41.0 °F 39.0 °F 41.0 °F 100% 30.57 in 6.2 mi WNW 3.5 mph - N/A   Overcast
7:55 AM 44.6 °F - 44.6 °F 100% 30.57 in 6.2 mi Calm Calm - N/A   Scattered Clouds
8:00 AM 47 °F - 44 °F 87% 30.59 in 12 mi Calm Calm - -   Partly Cloudy
8:25 AM 48.2 °F - 42.8 °F 82% 30.57 in 6.2 mi NNW 1.2 mph - N/A   Unknown
8:55 AM 51.8 °F - 41.0 °F 67% 30.60 in 6.2 mi Variable 2.3 mph - N/A   Mostly Cloudy
9:00 AM 52 °F - 42 °F 58% 30.60 in 14 mi NNW 2.2 mph - -   Partly Cloudy
9:25 AM 51.8 °F - 41.0 °F 67% 30.60 in 6.2 mi NNW 3.5 mph - N/A   Partly Cloudy
9:55 AM 51.8 °F - 41.0 °F 67% 30.60 in 6.2 mi North 5.8 mph - N/A   Drizzle
10:00 AM 51 °F - 39 °F 54% 30.61 in 22 mi North 6.7 mph - - Rain Light Drizzle
10:25 AM 51.8 °F - 39.2 °F 62% 30.60 in 6.2 mi North 6.9 mph - N/A   Partly Cloudy
10:55 AM 53.6 °F - 39.2 °F 58% 30.60 in 6.2 mi North 8.1 mph - N/A   Overcast
11:00 AM 53 °F - 41 °F 53% 30.61 in 16 mi North 6.7 mph - - Rain Drizzle
11:25 AM 53.6 °F - 39.2 °F 58% 30.60 in 6.2 mi North 8.1 mph - N/A   Mostly Cloudy
11:55 AM 53.6 °F - 39.2 °F 58% 30.60 in 6.2 mi North 8.1 mph - N/A   Partly Cloudy
12:00 PM 54 °F - 38 °F 44% 30.60 in 17 mi North 6.7 mph - -   Partly Cloudy
12:25 PM 53.6 °F - 39.2 °F 58% 30.60 in 6.2 mi North 8.1 mph - N/A   Partly Cloudy
12:55 PM 57.2 °F - 41.0 °F 55% 30.60 in 6.2 mi NE 6.9 mph - N/A   Partly Cloudy
1:00 PM 56 °F - 40 °F 43% 30.61 in 17 mi NE 6.7 mph - -   Scattered Clouds
1:25 PM 55.4 °F - 41.0 °F 58% 30.60 in 6.2 mi NNE 8.1 mph - N/A   Mostly Cloudy
1:55 PM 57.2 °F - 39.2 °F 51% 30.60 in 6.2 mi Variable 6.9 mph - N/A   Mostly Cloudy
2:00 PM 57 °F - 40 °F 41% 30.61 in 19 mi NE 6.7 mph - -   Partly Cloudy
2:25 PM 59.0 °F - 42.8 °F 55% 30.60 in 6.2 mi NNE 6.9 mph - N/A   Overcast
2:55 PM 59.0 °F - 39.2 °F 48% 30.60 in 6.2 mi North 4.6 mph - N/A   Scattered Clouds
3:00 PM 58 °F - 42 °F 43% 30.60 in 15 mi North 6.7 mph - -   Mostly Cloudy
3:25 PM 59.0 °F - 39.2 °F 48% 30.60 in 6.2 mi North 4.6 mph - N/A   Unknown
3:55 PM 59.0 °F - 42.8 °F 55% 30.60 in 6.2 mi NNE 5.8 mph - N/A   Mostly Cloudy
4:00 PM 59 °F - 43 °F 44% 30.59 in 19 mi NNW 4.5 mph - -   Scattered Clouds
4:25 PM 59.0 °F - 42.8 °F 55% 30.57 in 6.2 mi North 6.9 mph - N/A   Mostly Cloudy
4:55 PM 59.0 °F - 44.6 °F 59% 30.57 in 6.2 mi North 6.9 mph - N/A   Unknown
5:00 PM 58 °F - 44 °F 48% 30.59 in 16 mi North 6.7 mph - -   Scattered Clouds
5:25 PM 59.0 °F - 44.6 °F 59% 30.57 in 6.2 mi North 6.9 mph - N/A   Unknown
5:55 PM 59.0 °F - 44.6 °F 59% 30.57 in 6.2 mi North 8.1 mph - N/A   Partly Cloudy
6:00 PM 58 °F - 45 °F 51% 30.59 in 19 mi North 8.9 mph - -   Scattered Clouds
6:25 PM 57.2 °F - 44.6 °F 63% 30.57 in 6.2 mi North 8.1 mph - N/A   Unknown
6:55 PM 57.2 °F - 44.6 °F 63% 30.57 in 6.2 mi North 6.9 mph - N/A   Unknown
7:00 PM 57 °F - 44 °F 52% 30.59 in 17 mi North 8.9 mph - -  
7:25 PM 57.2 °F - 44.6 °F 63% 30.57 in 6.2 mi NNW 8.1 mph - N/A   Unknown
7:55 PM 55.4 °F - 44.6 °F 67% 30.57 in 6.2 mi NNW 8.1 mph - N/A   Unknown
8:00 PM 55 °F - 45 °F 59% 30.59 in 22 mi NNW 6.7 mph - -   Partly Cloudy
8:25 PM 53.6 °F - 44.6 °F 72% 30.60 in 6.2 mi North 5.8 mph - N/A   Unknown
9:00 PM 52 °F - 45 °F 68% 30.60 in 19 mi North 4.5 mph - -  
9:25 PM 51.8 °F - 44.6 °F 76% 30.60 in 6.2 mi North 4.6 mph - N/A   Unknown
9:55 PM 50.0 °F - 44.6 °F 82% 30.60 in 6.2 mi North 3.5 mph - N/A   Unknown
10:00 PM 49 °F - 44 °F 77% 30.61 in 22 mi North 2.2 mph - -  
10:25 PM 48.2 °F - 44.6 °F 87% 30.60 in 6.2 mi North 3.5 mph - N/A   Unknown
10:55 PM 46.4 °F - 42.8 °F 87% 30.60 in 6.2 mi Variable 2.3 mph - N/A   Unknown
11:00 PM 46 °F - 44 °F 88% 30.62 in 14 mi NNE 2.2 mph - -  
11:25 PM 46.4 °F - 44.6 °F 93% 30.60 in 6.2 mi Variable 2.3 mph - N/A   Unknown
11:55 PM 44.6 °F 43.1 °F 44.6 °F 100% 30.60 in 6.2 mi North 3.5 mph - N/A   Unknown